IW2NIA-3 Weather Reports


Display with metric or nautical units.
time (UTC)temp
F
wind
direction
speed
MPH
gust
MPH
rain 1hr
in
rain 24hr
in
rain mn
in
humidity
%
barometer
mb
20260901190339 77 171 0.0 0.0 0.00 0.00 0.00 76 1017.1
20260901184834 77 171 0.0 0.0 0.00 0.00 0.00 75 1016.9
20260901183332 78 171 0.0 0.0 0.00 0.00 0.00 74 1016.9
20260901181843 78 171 0.0 0.0 0.00 0.00 0.00 72 1016.7
20260901180338 80 171 0.0 0.0 0.00 0.00 0.00 69 1016.6
20260901174833 81 171 1.0 2.0 0.00 0.00 0.00 65 1016.6
20260901173337 81 171 0.0 2.0 0.00 0.00 0.00 63 1016.5
20260901171828 82 221 0.0 2.0 0.00 0.00 0.00 61 1016.3
20260901170340 82 221 0.0 2.0 0.00 0.00 0.00 60 1016.3
20260901164837 83 222 1.0 4.0 0.00 0.00 0.00 60 1016.4
20260901163346 84 223 1.0 3.0 0.00 0.00 0.00 57 1016.4
20260901161843 85 223 2.0 5.0 0.00 0.00 0.00 56 1016.5
20260901160341 85 209 3.0 5.0 0.00 0.00 0.00 55 1016.5
20260901154836 84 111 3.0 5.0 0.00 0.00 0.00 57 1016.5
20260901153333 85 154 1.0 6.0 0.00 0.00 0.00 57 1016.5
20260901151832 85 235 3.0 6.0 0.00 0.00 0.00 56 1016.5
20260901150344 85 234 3.0 5.0 0.00 0.00 0.00 54 1016.6
20260901144830 85 251 3.0 10.0 0.00 0.00 0.00 56 1016.8
20260901143326 85 126 2.0 7.0 0.00 0.00 0.00 55 1016.8
20260901141840 85 314 1.0 10.0 0.00 0.00 0.00 60 1016.9
20260901140348 85 209 3.0 7.0 0.00 0.00 0.00 56 1017.0
20260901134827 85 134 2.0 7.0 0.00 0.00 0.00 57 1017.0
20260901133339 84 160 2.0 7.0 0.00 0.00 0.00 58 1017.0
20260901131830 83 97 4.0 9.0 0.00 0.00 0.00 58 1017.3
20260901130342 83 135 5.0 9.0 0.00 0.00 0.00 56 1017.3
20260901124832 83 214 2.0 10.0 0.00 0.00 0.00 55 1017.6
20260901123346 82 157 0.0 3.0 0.00 0.00 0.00 61 1017.7
20260901121840 82 228 1.0 4.0 0.00 0.00 0.00 58 1018.0
20260901120330 81 160 0.0 5.0 0.00 0.00 0.00 60 1018.0
20260901114829 80 218 2.0 6.0 0.00 0.00 0.00 62 1017.9
20260901113328 81 148 3.0 6.0 0.00 0.00 0.00 62 1017.9
20260901111848 80 181 3.0 6.0 0.00 0.00 0.00 63 1018.1
20260901110346 80 243 3.0 12.0 0.00 0.00 0.00 62 1018.3
20260901104840 79 257 5.0 10.0 0.00 0.00 0.00 65 1018.2
20260901103348 80 180 1.0 10.0 0.00 0.00 0.00 65 1018.2
20260901101842 80 182 2.0 10.0 0.00 0.00 0.00 65 1018.2
20260901100325 79 219 3.0 14.0 0.00 0.00 0.00 65 1018.4
20260901094841 79 221 3.0 9.0 0.00 0.00 0.00 66 1018.4
20260901093334 78 192 3.0 6.0 0.00 0.00 0.00 73 1018.4
20260901091831 77 198 7.0 11.0 0.00 0.00 0.00 74 1018.4
20260901090345 77 208 2.0 9.0 0.00 0.00 0.00 77 1018.4
20260901084838 77 194 2.0 8.0 0.00 0.00 0.00 77 1018.3
20260901083335 76 184 1.0 7.0 0.00 0.00 0.00 77 1018.3
20260901082001 76 205 4.0 7.0 0.00 0.00 0.00 78 1018.2
20260901080344 76 182 2.0 11.0 0.00 0.00 0.00 77 1018.1
20260901074847 75 121 7.0 10.0 0.00 0.00 0.00 78 1017.9
20260901073326 74 106 4.0 9.0 0.00 0.00 0.00 79 1017.9
20260901071837 74 144 4.0 7.0 0.00 0.00 0.00 80 1017.9
20260901070347 72 132 4.0 5.0 0.00 0.00 0.00 81 1017.8
20260901064837 71 111 2.0 6.0 0.00 0.00 0.00 80 1017.7
20260901063334 71 131 2.0 6.0 0.00 0.00 0.00 78 1017.7
20260901061831 71 157 5.0 7.0 0.00 0.00 0.00 74 1017.5
20260901060342 71 143 4.0 7.0 0.00 0.00 0.00 72 1017.2
20260901054841 69 132 4.0 8.0 0.00 0.00 0.00 74 1017.0
20260901053340 68 96 3.0 4.0 0.00 0.00 0.00 75 1016.8
20260901051829 68 96 2.0 3.0 0.00 0.00 0.00 73 1016.6
20260901050345 68 96 2.0 3.0 0.00 0.00 0.00 71 1016.5
20260901044831 68 101 3.0 4.0 0.00 0.00 0.00 69 1016.4
20260901043345 67 103 3.0 5.0 0.00 0.00 0.00 70 1016.1
20260901041828 68 130 2.0 4.0 0.00 0.00 0.00 68 1015.9
20260901040330 67 71 3.0 4.0 0.00 0.00 0.00 67 1015.7
20260901034842 68 72 0.0 2.0 0.00 0.00 0.00 67 1015.5
20260901033340 68 65 2.0 3.0 0.00 0.00 0.00 65 1015.3
20260901031837 67 26 3.0 4.0 0.00 0.00 0.00 70 1015.2
20260901030332 66 47 3.0 4.0 0.00 0.00 0.00 77 1015.0
20260901024830 66 63 3.0 3.0 0.00 0.00 0.00 79 1015.0
20260901023330 66 51 0.0 3.0 0.00 0.00 0.00 78 1015.0
20260901021843 66 53 2.0 3.0 0.00 0.00 0.00 81 1015.0
20260901020338 66 36 2.0 4.0 0.00 0.00 0.00 83 1015.0
20260901014847 66 27 0.0 1.0 0.00 0.00 0.00 84 1015.1
20260901013342 67 27 0.0 2.0 0.00 0.00 0.00 84 1015.1
20260901011837 66 233 0.0 0.0 0.00 0.00 0.00 85 1015.1
20260901010327 66 233 0.0 0.0 0.00 0.00 0.00 86 1015.1
20260901004829 67 233 0.0 0.0 0.00 0.00 0.00 86 1015.0
20260901003341 67 233 0.0 0.0 0.00 0.00 0.00 87 1014.9
20260901001840 67 233 0.0 0.0 0.00 0.00 0.00 87 1014.9
20260901000336 68 232 0.0 0.0 0.00 0.00 0.00 87 1014.7
20260831234837 68 232 0.0 0.0 0.00 0.00 0.00 87 1014.7
20260831233332 69 232 0.0 0.0 0.00 0.00 0.00 86 1014.7
20260831231831 69 233 0.0 4.0 0.00 0.00 0.00 85 1014.7
20260831230330 70 80 1.0 4.0 0.00 0.00 0.00 85 1014.6
20260831224844 70 350 0.0 0.0 0.00 0.00 0.00 85 1014.6
20260831223340 71 355 0.0 0.0 0.00 0.00 0.00 84 1014.5
20260831221830 71 355 0.0 0.0 0.00 0.00 0.00 83 1014.4
20260831220329 72 355 0.0 0.0 0.00 0.00 0.00 83 1014.4
20260831214847 72 355 0.0 2.0 0.00 0.00 0.00 82 1014.3
20260831213338 73 355 1.0 3.0 0.00 0.00 0.00 82 1014.3
20260831211834 73 355 0.0 2.0 0.00 0.00 0.00 82 1014.2
20260831210332 73 355 3.0 4.0 0.00 0.00 0.00 82 1014.1
20260831204846 73 223 0.0 4.0 0.00 0.00 0.00 81 1014.1
20260831203340 74 251 1.0 5.0 0.00 0.00 0.00 76 1013.9
20260831201829 75 340 0.0 0.0 0.00 0.00 0.00 77 1013.8
20260831200340 75 338 0.0 0.0 0.00 0.00 0.00 76 1013.7
20260831194830 76 338 0.0 0.0 0.00 0.00 0.00 76 1013.5
20260831193346 76 338 0.0 0.0 0.00 0.00 0.00 75 1013.5
20260831191826 77 338 0.0 0.0 0.00 0.00 0.00 73 1013.4